Wind_Speed
53 50 48 46 47 46 46 46 46 44 42 41 42 43 43 43 43 45 46 43 40 35 34 37 41 47 53 59 63 62 61 59 57 53 45 39 37 36 37 38 41 44 48 51
60 59 58 55 51 50 51 52 52 50 47 45 46 46 44 42 42 43 41 36 34 33 36 41 47 53 59 61 60 58 56 55 52 45 40 38 38 38 40 42 46 49 52 53
63 63 64 62 57 56 55 55 57 57 54 51 49 47 48 48 45 43 39 36 34 38 43 47 52 56 58 57 56 54 53 50 45 40 39 38 39 41 44 47 50 52 53 52
58 60 63 60 58 59 59 58 59 60 60 59 57 56 55 53 49 46 45 45 45 46 47 49 53 54 53 52 51 50 48 44 40 38 39 40 42 45 48 51 52 53 52 51
52 56 59 56 56 56 56 57 58 61 63 63 61 59 58 55 52 49 47 46 44 45 46 48 49 49 49 47 47 46 42 39 37 38 40 42 44 47 50 51 51 51 51 50
48 51 53 51 50 50 50 50 51 54 57 58 58 57 54 49 46 45 44 44 43 43 44 44 45 45 44 44 43 40 37 36 37 39 41 44 46 48 49 49 50 51 51 49
40 44 45 45 45 44 44 44 42 43 44 44 46 47 46 43 41 40 39 39 39 39 40 40 41 40 40 41 39 35 34 35 38 40 43 45 46 47 48 49 51 51 49 46
36 39 39 40 43 43 41 38 37 37 37 37 36 37 36 36 35 35 34 35 35 35 36 36 36 37 38 36 33 32 33 35 38 41 43 44 45 46 48 49 49 47 44 43
30 32 33 33 35 36 36 35 35 32 28 30 31 32 31 29 28 29 30 30 31 32 32 32 33 34 33 30 29 30 33 36 39 41 42 43 44 45 46 46 45 43 41 38
25 25 24 23 22 24 25 25 25 25 24 25 25 24 23 22 23 25 26 27 29 29 30 30 30 29 26 25 27 30 33 36 39 39 40 42 42 43 43 42 41 40 36 32
18 16 13 10 9 12 17 16 16 17 15 14 16 17 18 19 21 23 25 26 26 26 27 27 24 22 22 24 27 30 34 36 38 39 40 41 41 41 40 39 38 35 31 28
8 6 5 7 7 9 10 10 8 7 8 10 12 15 16 18 21 22 23 22 23 23 23 20 18 18 20 23 27 30 33 35 37 39 40 40 40 39 38 37 35 32 30 27
9 12 11 9 8 8 7 6 6 7 8 10 12 14 16 18 19 20 20 20 21 20 16 14 13 16 19 23 27 31 33 35 37 39 39 39 39 38 36 35 33 32 30 26
11 12 12 9 6 6 6 7 8 8 8 9 11 13 15 16 17 17 18 18 16 12 9 9 11 15 19 24 28 31 33 35 37 38 38 37 37 36 34 33 32 31 29 26
9 9 8 7 7 7 8 9 10 9 9 9 11 12 13 13 14 16 15 12 8 5 5 7 10 15 21 25 28 30 33 35 36 36 36 35 35 34 33 32 31 31 28 25
9 7 7 8 7 7 7 8 8 8 9 9 10 10 11 12 14 12 7 3 3 2 3 6 11 17 22 25 27 29 32 33 34 34 34 34 34 34 33 32 31 29 27 24
10 8 7 7 5 5 6 7 7 7 7 7 8 9 10 11 8 2 4 6 4 1 3 8 13 18 22 24 26 29 31 31 31 32 32 33 33 33 32 31 30 29 27 24
11 10 10 8 7 6 7 8 8 7 7 6 6 8 8 4 3 8 9 8 5 2 6 11 16 20 22 24 26 28 29 30 31 31 32 33 32 32 32 31 30 29 28 26
13 13 13 12 10 9 9 10 9 8 6 5 5 5 2 5 10 11 10 8 5 5 9 13 17 20 22 24 26 27 28 30 31 32 33 33 32 30 30 29 29 29 28 26
14 14 15 14 12 10 11 11 11 9 7 5 4 3 7 11 13 13 10 8 6 7 11 15 18 20 23 25 27 27 29 31 33 34 34 32 30 28 27 27 27 28 28 27
16 16 16 14 12 13 14 13 12 9 7 6 5 7 12 14 15 13 10 7 7 9 12 16 19 22 24 26 28 30 32 35 36 36 35 32 29 26 25 24 25 27 28 27
17 16 15 14 15 16 16 15 12 10 8 7 7 11 15 17 16 13 10 8 8 10 14 17 19 22 25 28 30 33 36 39 39 38 35 31 28 25 24 23 23 25 27 28
17 17 17 18 19 19 17 15 13 11 9 8 9 14 18 19 17 14 11 9 8 11 14 17 20 23 26 29 32 36 39 41 41 39 35 31 29 26 24 23 23 24 26 28
19 20 21 21 21 19 17 15 14 12 10 9 11 16 20 20 17 14 11 9 8 11 15 17 20 23 26 30 34 38 41 42 42 40 36 33 31 29 27 25 24 23 24 26
20 22 23 22 21 19 17 16 14 12 10 10 13 18 22 21 19 15 12 9 9 11 14 17 19 22 26 30 34 38 41 43 43 41 39 35 33 31 29 28 26 25 24 25
21 23 23 22 21 19 18 16 14 12 10 11 15 20 23 22 20 16 13 10 9 11 13 16 18 21 25 29 33 37 40 42 42 42 41 38 36 34 32 31 30 28 27 26
21 22 22 22 21 20 18 16 14 12 11 12 18 23 26 24 21 17 13 10 9 10 12 15 16 19 23 28 32 36 39 40 41 42 42 41 39 37 35 34 33 32 31 30
Wind_Direction
253 253 251 246 242 242 244 247 251 254 257 260 263 264 266 269 271 275 273 270 268 273 290 302 307 309 311 312 313 313 313 314 315 315 313 310 309 309 310 311 311 312 312 312
250 253 255 254 251 249 248 249 252 255 259 262 265 266 268 271 275 276 272 268 275 289 302 308 310 311 311 312 312 313 314 314 315 313 310 309 310 311 311 312 313 314 313 313
248 250 253 254 254 255 254 254 254 254 257 260 265 269 275 278 279 283 276 278 291 306 312 312 311 310 310 311 312 313 313 313 312 310 309 310 311 312 313 314 315 315 315 314
249 250 251 254 254 253 252 252 254 256 257 260 264 269 273 277 281 281 278 282 296 307 310 308 308 309 310 311 312 312 312 311 309 309 310 312 314 315 316 317 317 317 317 316
251 253 254 254 255 255 255 253 251 252 255 257 260 265 269 273 277 278 281 291 300 305 305 305 307 309 310 310 311 311 310 308 308 311 312 314 316 318 319 320 320 319 318 317
254 256 258 259 256 255 256 254 252 252 254 257 260 264 268 271 273 275 282 291 299 301 302 305 307 308 308 309 309 309 307 308 310 312 314 317 320 321 322 323 322 322 321 320
255 257 260 261 260 257 254 254 254 254 255 257 259 262 263 265 269 277 286 292 294 297 301 304 306 307 307 308 307 306 306 309 312 314 318 322 324 325 325 325 325 325 325 324
260 262 265 264 260 256 254 251 251 251 252 251 251 253 255 260 268 278 285 289 293 297 301 303 304 305 306 306 305 305 308 312 315 319 323 326 327 328 329 329 329 329 329 328
268 270 270 267 262 255 249 247 246 247 247 244 243 245 251 264 274 279 282 286 291 296 299 301 303 304 304 303 304 307 312 316 320 325 328 330 332 332 332 332 332 332 331 330
277 277 269 264 257 245 239 239 239 239 234 227 232 238 250 260 270 275 280 285 290 294 297 300 302 303 302 303 307 312 317 321 325 330 333 335 335 334 334 335 335 335 335 335
282 272 261 245 222 210 216 222 219 221 223 236 245 248 252 259 266 273 281 287 291 293 296 300 301 301 303 307 312 317 322 326 331 335 337 337 337 337 337 338 339 340 341 341
253 222 184 146 151 167 182 198 207 213 223 243 250 251 255 262 271 279 284 288 290 294 298 300 300 302 307 313 319 323 328 334 337 339 339 339 339 340 341 343 345 345 345 344
183 169 164 152 147 167 186 199 211 226 242 248 252 256 263 270 277 281 283 287 293 297 298 298 300 307 314 320 325 330 336 341 342 342 342 343 344 345 346 348 350 351 351 351
173 162 162 168 177 192 210 220 226 230 236 243 252 260 267 273 276 280 286 293 296 294 291 296 307 316 323 328 334 339 343 345 345 345 347 348 350 351 352 355 357 358 359 2
182 173 164 171 187 203 210 214 218 225 237 249 259 266 270 273 279 288 294 295 285 270 281 306 320 327 331 337 342 346 348 349 350 351 352 354 356 358 360 2 3 4 7 12
192 175 164 171 180 192 207 216 225 237 250 260 264 267 274 285 294 298 292 250 203 217 310 328 335 337 340 344 348 351 352 353 355 356 358 360 2 5 6 8 9 11 14 19
206 203 192 192 195 206 225 230 238 245 247 250 260 276 292 302 301 263 163 153 148 117 353 348 346 346 348 352 356 357 356 358 0 2 3 5 7 10 11 13 14 17 19 22
221 224 225 227 229 232 236 237 228 221 223 243 271 294 306 303 155 147 144 141 131 71 11 359 355 355 357 2 3 1 0 2 4 5 6 8 9 12 14 16 18 20 22 25
225 228 232 234 234 232 228 222 212 210 219 249 281 298 279 154 149 145 141 134 106 47 15 8 6 4 6 8 7 7 6 5 5 5 6 7 9 11 14 18 22 24 26 28
226 229 233 235 232 220 209 204 199 199 212 240 258 231 163 155 151 145 139 124 85 40 23 19 14 12 12 12 12 11 10 8 6 5 4 5 7 10 14 20 25 29 30 32
223 225 228 227 212 195 190 189 190 196 208 217 210 175 161 156 151 146 137 114 73 41 32 26 20 17 17 17 16 14 13 11 8 6 5 5 7 11 16 23 28 32 34 34
220 217 212 201 188 184 184 185 189 196 201 199 182 166 160 157 153 148 134 105 71 47 38 30 23 21 22 22 19 18 16 13 11 9 9 11 13 16 21 27 32 35 37 37
209 201 193 185 181 181 183 187 191 194 195 187 170 163 161 160 156 149 133 105 74 54 42 33 27 26 26 25 23 21 19 17 15 15 18 20 23 26 29 33 37 39 40 40
196 190 186 183 182 183 186 190 192 193 190 178 166 162 163 162 156 148 132 108 80 60 44 36 32 31 30 29 27 24 22 21 22 24 26 29 31 33 35 38 42 44 45 44
191 187 186 186 186 186 188 190 192 191 187 175 166 165 166 163 157 149 134 114 89 63 47 38 36 36 36 34 31 28 27 26 27 29 32 34 36 38 40 42 45 48 50 50
189 186 186 186 187 187 188 189 190 189 184 174 167 166 166 163 158 151 137 121 97 67 50 42 42 43 41 38 35 33 32 31 32 34 36 39 41 42 44 46 48 51 53 53
190 188 188 189 189 189 190 190 191 190 184 174 169 168 166 163 160 153 141 128 104 71 54 49 51 51 47 43 40 38 36 36 37 38 40 42 44 46 47 49 51 52 53 54
Height
5751 5755 5759 5762 5764 5765 5764 5763 5764 5764 5765 5767 5766 5766 5765 5765 5764 5763 5760 5757 5753 5749 5748 5746 5743 5739 5734 5728 5721 5713 5705 5697 5689 5681 5673 5666 5660 5654 5648 5642 5635 5628 5621 5613
5739 5742 5743 5748 5754 5756 5755 5755 5755 5755 5757 5760 5759 5758 5757 5756 5755 5753 5749 5745 5741 5740 5739 5737 5733 5729 5724 5717 5710 5702 5695 5687 5680 5672 5665 5659 5653 5647 5640 5633 5625 5617 5609 5600
5725 5728 5728 5731 5740 5744 5745 5746 5746 5747 5750 5750 5751 5751 5750 5748 5747 5745 5741 5736 5733 5731 5729 5727 5723 5718 5712 5706 5699 5692 5685 5678 5672 5665 5659 5652 5646 5639 5631 5623 5615 5606 5596 5586
5711 5714 5713 5722 5725 5727 5729 5733 5735 5736 5738 5741 5742 5743 5742 5741 5740 5738 5733 5729 5726 5723 5721 5718 5714 5708 5702 5696 5690 5684 5677 5671 5664 5658 5652 5645 5638 5630 5621 5612 5603 5593 5583 5573
5698 5698 5699 5708 5711 5712 5715 5718 5722 5724 5726 5728 5730 5731 5731 5731 5730 5728 5724 5721 5719 5716 5713 5709 5704 5699 5694 5688 5682 5676 5670 5664 5658 5652 5645 5638 5630 5621 5611 5601 5592 5582 5571 5562
5686 5685 5687 5696 5697 5699 5701 5702 5708 5710 5713 5717 5719 5720 5722 5721 5719 5717 5715 5714 5712 5709 5705 5701 5696 5691 5686 5680 5675 5669 5664 5658 5652 5645 5638 5630 5621 5611 5601 5591 5581 5571 5560 5550
5674 5673 5676 5682 5683 5685 5689 5693 5696 5699 5702 5705 5708 5710 5710 5710 5709 5709 5707 5706 5704 5701 5697 5693 5689 5684 5679 5674 5669 5663 5658 5653 5646 5639 5630 5621 5612 5602 5592 5582 5571 5560 5550 5540
5663 5664 5668 5669 5669 5672 5677 5682 5685 5688 5691 5694 5697 5697 5698 5699 5700 5700 5700 5699 5697 5693 5690 5686 5682 5678 5673 5668 5663 5658 5653 5647 5640 5632 5623 5613 5604 5594 5583 5573 5562 5551 5541 5532
5655 5657 5656 5655 5655 5659 5665 5671 5675 5679 5682 5685 5686 5688 5690 5692 5693 5694 5693 5692 5690 5687 5684 5680 5676 5672 5668 5663 5658 5654 5648 5642 5634 5625 5615 5606 5596 5586 5576 5565 5555 5545 5535 5526
5645 5645 5645 5645 5646 5650 5656 5663 5667 5672 5675 5677 5678 5680 5684 5686 5688 5688 5687 5686 5684 5681 5678 5674 5670 5666 5662 5658 5654 5649 5644 5636 5628 5619 5609 5600 5590 5580 5570 5560 5550 5540 5530 5521
5637 5636 5637 5639 5642 5647 5653 5658 5662 5666 5668 5671 5673 5676 5679 5681 5682 5682 5681 5680 5677 5675 5672 5669 5665 5661 5659 5655 5651 5645 5639 5630 5621 5613 5604 5595 5585 5575 5565 5556 5545 5536 5526 5518
5633 5634 5636 5639 5643 5648 5652 5656 5659 5662 5665 5668 5671 5673 5675 5676 5677 5676 5675 5674 5672 5670 5667 5663 5661 5658 5656 5652 5647 5641 5634 5625 5616 5608 5599 5590 5581 5571 5561 5551 5541 5532 5523 5515
5632 5634 5638 5641 5644 5648 5652 5654 5657 5660 5662 5665 5667 5669 5671 5672 5672 5671 5670 5669 5667 5664 5662 5660 5658 5657 5654 5649 5644 5637 5629 5620 5612 5604 5595 5585 5576 5567 5557 5548 5538 5529 5521 5513
5634 5637 5639 5642 5645 5647 5650 5654 5656 5659 5661 5663 5665 5666 5667 5668 5668 5667 5666 5664 5662 5660 5659 5658 5657 5655 5652 5647 5641 5633 5625 5617 5609 5600 5591 5582 5573 5564 5555 5545 5537 5528 5520 5512
5636 5638 5640 5642 5645 5647 5650 5653 5655 5657 5659 5661 5663 5663 5664 5664 5663 5662 5660 5659 5658 5658 5658 5658 5657 5654 5650 5644 5637 5630 5622 5615 5606 5597 5589 5580 5572 5562 5553 5545 5536 5528 5520 5514
5636 5638 5641 5643 5645 5648 5650 5652 5654 5656 5657 5658 5659 5660 5660 5660 5658 5657 5656 5657 5658 5659 5659 5658 5656 5653 5648 5642 5635 5628 5621 5613 5605 5597 5589 5580 5571 5562 5553 5545 5538 5530 5523 5517
5636 5638 5641 5643 5646 5648 5649 5651 5652 5654 5655 5656 5657 5657 5657 5656 5655 5655 5656 5658 5659 5660 5660 5658 5656 5652 5647 5641 5634 5627 5620 5612 5605 5597 5589 5580 5571 5563 5555 5547 5540 5533 5526 5520
5635 5637 5639 5642 5645 5647 5648 5649 5651 5653 5654 5655 5655 5655 5655 5654 5655 5656 5658 5660 5661 5661 5660 5658 5655 5651 5645 5640 5633 5627 5619 5612 5605 5597 5589 5580 5572 5565 5557 5550 5543 5536 5529 5523
5633 5635 5637 5640 5642 5645 5646 5647 5649 5651 5652 5653 5654 5654 5654 5655 5657 5659 5661 5662 5662 5662 5661 5659 5655 5650 5645 5640 5634 5628 5620 5613 5605 5597 5589 5581 5573 5566 5560 5553 5546 5540 5533 5527
5630 5632 5634 5636 5639 5642 5644 5645 5648 5650 5651 5652 5653 5654 5656 5657 5659 5661 5663 5663 5664 5663 5662 5659 5656 5651 5646 5641 5635 5629 5621 5613 5605 5596 5588 5581 5574 5567 5561 5556 5550 5544 5538 5532
5626 5629 5631 5633 5636 5639 5642 5644 5647 5649 5651 5652 5654 5655 5657 5659 5661 5663 5664 5665 5665 5665 5663 5660 5657 5653 5648 5642 5636 5629 5622 5614 5605 5596 5588 5580 5574 5568 5563 5558 5553 5548 5543 5537
5622 5625 5628 5631 5634 5637 5640 5644 5647 5649 5651 5653 5654 5655 5658 5660 5663 5665 5666 5667 5667 5666 5664 5662 5659 5655 5650 5644 5638 5631 5623 5615 5606 5597 5588 5581 5574 5569 5565 5561 5557 5552 5547 5542
5619 5622 5625 5629 5632 5636 5640 5643 5646 5649 5651 5652 5653 5655 5658 5661 5664 5667 5668 5669 5669 5668 5667 5664 5661 5657 5652 5647 5641 5634 5626 5617 5608 5599 5590 5583 5577 5572 5568 5564 5560 5556 5552 5548
5616 5620 5624 5628 5631 5636 5640 5643 5646 5648 5650 5651 5653 5655 5659 5662 5666 5669 5670 5671 5671 5671 5669 5667 5664 5661 5656 5651 5644 5637 5629 5621 5612 5603 5595 5588 5582 5577 5572 5568 5565 5561 5557 5554
5615 5619 5623 5627 5631 5635 5639 5642 5645 5647 5649 5650 5653 5655 5659 5663 5668 5670 5672 5673 5674 5673 5672 5670 5668 5664 5660 5655 5649 5642 5635 5626 5618 5609 5601 5594 5588 5583 5578 5574 5570 5567 5563 5560
5614 5618 5622 5626 5630 5634 5638 5641 5644 5646 5648 5650 5653 5656 5660 5665 5669 5672 5674 5676 5676 5676 5675 5673 5671 5668 5664 5660 5654 5648 5641 5633 5625 5618 5610 5603 5596 5591 5586 5581 5577 5573 5570 5566
5613 5617 5621 5625 5629 5633 5637 5639 5642 5644 5647 5649 5653 5656 5661 5666 5671 5674 5676 5678 5679 5678 5678 5676 5674 5672 5669 5665 5660 5655 5648 5641 5634 5627 5620 5613 5606 5600 5595 5590 5586 5582 5578 5574